CW8839 Weather Reports


time (UTC)temp
C
wind
direction
speed
KPH
gust
KPH
rain 1hr
cm
rain 24hr
cm
rain mn
cm
humidity
%
barometer
mb
20260510033949 9 49 3.2 12.9 0.00 0.56 0.56 94 1010.9
20260510033420 9 355 3.2 12.9 0.00 0.56 0.56 93 1010.9
20260510032932 8 360 6.4 8.0 0.00 0.56 0.56 93 1010.9
20260510032444 8 360 3.2 12.9 0.00 0.56 0.56 92 1010.6
20260510031933 8 163 6.4 12.9 0.00 0.56 0.56 92 1010.5
20260510031419 8 144 6.4 9.7 0.00 0.56 0.56 92 1010.4
20260510030931 8 150 3.2 9.7 0.00 0.56 0.56 92 1010.4
20260510030421 8 157 3.2 8.0 0.00 0.56 0.56 92 1010.4
20260510025929 8 194 1.6 6.4 0.00 0.56 0.56 92 1010.4
20260510025421 8 211 1.6 6.4 0.00 0.56 0.56 92 1010.4
20260510024931 8 243 0.0 6.4 0.00 0.56 0.56 91 1010.4
20260510024423 9 182 1.6 4.8 0.00 0.56 0.56 91 1010.4
20260510023934 8 181 0.0 3.2 0.00 0.56 0.56 91 1010.3
20260510023420 9 181 0.0 1.6 0.00 0.56 0.56 90 1010.3
20260510022932 9 181 1.6 3.2 0.00 0.56 0.56 90 1010.2
20260510022422 9 181 1.6 3.2 0.00 0.56 0.56 89 1010.1
20260510021933 9 181 0.0 1.6 0.00 0.56 0.56 89 1010.1
20260510021425 9 181 0.0 3.2 0.00 0.56 0.56 89 1010.0
20260510020935 9 181 0.0 3.2 0.00 0.56 0.56 89 1010.0
20260510020428 9 181 0.0 3.2 0.00 0.56 0.56 88 1010.0
20260510015930 10 181 0.0 3.2 0.00 0.56 0.56 88 1010.0
20260510015421 10 181 0.0 3.2 0.00 0.56 0.56 88 1009.9
20260510014927 10 181 0.0 3.2 0.00 0.56 0.56 87 1009.8
20260510014418 10 182 0.0 3.2 0.00 0.56 0.56 87 1009.7
20260510013928 10 182 1.6 3.2 0.00 0.56 0.56 87 1009.7
20260510013439 10 183 1.6 3.2 0.00 0.56 0.56 87 1009.6
20260510012930 10 184 0.0 1.6 0.00 0.56 0.56 87 1009.6
20260510012442 10 186 0.0 1.6 0.00 0.56 0.56 88 1009.6
20260510011932 10 190 0.0 4.8 0.00 0.56 0.56 88 1009.5
20260510011418 10 189 1.6 4.8 0.00 0.56 0.56 89 1009.4
20260510010930 10 189 0.0 3.2 0.00 0.56 0.56 88 1009.2
20260510010441 10 185 1.6 4.8 0.00 0.56 0.56 88 1009.3
20260510005928 11 185 0.0 4.8 0.00 0.56 0.56 88 1009.4
20260510005440 11 185 1.6 4.8 0.00 0.56 0.56 87 1009.3
20260510004933 11 209 1.6 9.7 0.00 0.56 0.56 87 1009.2
20260510004442 11 205 3.2 9.7 0.00 0.56 0.56 88 1009.0
20260510003949 11 202 3.2 9.7 0.00 0.56 0.56 87 1009.0
20260510003420 12 214 6.4 9.7 0.00 0.56 0.56 87 1008.9
20260510002932 12 233 4.8 9.7 0.00 0.56 0.56 86 1008.9
20260510002419 12 157 3.2 17.7 0.00 0.56 0.56 87 1008.9
20260510001929 12 203 9.7 17.7 0.00 0.56 0.56 86 1008.9
20260510001440 12 182 6.4 19.3 0.00 0.56 0.56 86 1008.8
20260510000951 12 152 1.6 9.7 0.00 0.56 0.56 84 1008.7
20260510000418 13 154 3.2 11.3 0.00 0.56 0.56 83 1008.6
20260509235919 13 151 6.4 11.3 0.00 0.56 0.56 81 1008.5
20260509235430 14 169 6.4 12.9 0.00 0.56 0.56 79 1008.5
20260509234920 15 238 6.4 12.9 0.00 0.56 0.56 75 1008.5
20260509234431 15 209 3.2 14.5 0.00 0.56 0.56 75 1008.4
20260509233943 15 178 3.2 16.1 0.00 0.56 0.56 72 1008.4
20260509233434 16 146 6.4 17.7 0.00 0.56 0.56 67 1008.4
20260509232924 16 141 8.0 17.7 0.00 0.56 0.56 64 1008.4
20260509232432 16 160 4.8 20.9 0.00 0.56 0.56 66 1008.4
20260509231943 16 319 3.2 22.5 0.00 0.56 0.56 65 1008.3
20260509231433 16 150 12.9 22.5 0.00 0.56 0.56 65 1008.4
20260509230925 15 230 8.0 19.3 0.00 0.56 0.56 75 1008.4
20260509230417 16 169 6.4 19.3 0.00 0.56 0.56 71 1008.3
20260509225919 17 163 4.8 16.1 0.00 0.56 0.56 64 1008.3
20260509225431 17 208 4.8 24.1 0.00 0.56 0.56 57 1008.4
20260509224939 17 235 8.0 24.1 0.00 0.56 0.56 60 1008.5
20260509224429 17 193 8.0 16.1 0.00 0.56 0.56 59 1008.6
20260509223922 17 317 8.0 19.3 0.00 0.56 0.56 58 1008.6
20260509223435 17 248 4.8 19.3 0.00 0.56 0.56 61 1008.6
20260509222926 17 188 8.0 16.1 0.00 0.56 0.56 62 1008.7
20260509222457 18 231 9.7 14.5 0.00 0.56 0.56 62 1008.7
20260509221928 18 191 4.8 19.3 0.00 0.56 0.56 66 1008.7
20260509221420 18 211 8.0 19.3 0.00 0.56 0.56 61 1008.7
20260509220927 18 210 9.7 25.7 0.00 0.56 0.56 56 1008.7
20260509220420 18 255 9.7 25.7 0.00 0.56 0.56 55 1008.6
20260509215947 18 184 4.8 16.1 0.00 0.56 0.56 61 1008.5
20260509215418 19 137 6.4 12.9 0.00 0.56 0.56 55 1008.6
20260509214929 19 212 8.0 19.3 0.00 0.56 0.56 56 1008.7
20260509214440 18 193 8.0 19.3 0.00 0.56 0.56 55 1008.9
20260509213952 18 202 8.0 27.4 0.00 0.56 0.56 57 1008.8
20260509213418 18 192 9.7 27.4 0.00 0.56 0.56 58 1008.8
20260509212930 18 200 11.3 19.3 0.00 0.56 0.56 53 1008.9
20260509212440 19 257 6.4 17.7 0.00 0.56 0.56 57 1008.8
20260509211930 19 157 6.4 17.7 0.00 0.56 0.56 59 1008.8
20260509211422 18 256 9.7 24.1 0.00 0.56 0.56 57 1008.6
20260509210933 19 169 8.0 24.1 0.00 0.56 0.56 56 1008.7
20260509210426 19 263 6.4 29.0 0.00 0.56 0.56 55 1008.7
20260509205932 19 185 8.0 29.0 0.00 0.56 0.56 53 1008.8
20260509205418 18 180 14.5 27.4 0.00 0.56 0.56 59 1008.8
20260509204930 18 211 14.5 22.5 0.00 0.56 0.56 55 1008.9
20260509204422 19 122 9.7 19.3 0.00 0.56 0.56 57 1008.8
20260509203932 19 59 4.8 11.3 0.00 0.56 0.56 58 1008.9
20260509203423 18 329 1.6 11.3 0.00 0.56 0.56 59 1009.0
20260509202935 18 225 4.8 17.7 0.00 0.56 0.56 61 1008.9
20260509202428 18 257 6.4 19.3 0.00 0.56 0.56 58 1009.0
20260509201937 18 306 9.7 20.9 0.00 0.56 0.56 60 1009.1
20260509201423 18 279 6.4 29.0 0.00 0.56 0.56 59 1009.1
20260509200934 18 156 12.9 29.0 0.00 0.56 0.56 60 1009.0
20260509200423 18 153 9.7 16.1 0.00 0.56 0.56 61 1009.1
20260509195929 18 216 6.4 17.7 0.00 0.56 0.56 62 1009.2
20260509195422 17 79 8.0 17.7 0.00 0.56 0.56 60 1009.4
20260509194934 17 242 4.8 16.1 0.00 0.56 0.56 61 1009.4
20260509194423 17 180 3.2 14.5 0.00 0.56 0.56 64 1009.4
20260509193933 18 208 6.4 16.1 0.00 0.56 0.56 61 1009.5
20260509193424 17 257 4.8 11.3 0.00 0.56 0.56 67 1009.7
20260509192950 17 300 6.4 9.7 0.00 0.56 0.56 66 1009.7
20260509192420 17 299 1.6 9.7 0.00 0.56 0.56 68 1009.8
20260509191930 17 343 3.2 9.7 0.00 0.56 0.56 68 1009.8
20260509191420 16 169 3.2 14.5 0.00 0.56 0.56 71 1009.9
20260509190952 16 192 3.2 14.5 0.00 0.56 0.56 68 1009.9
20260509190423 16 194 6.4 12.9 0.00 0.56 0.56 68 1010.0
20260509185931 16 148 6.4 14.5 0.00 0.56 0.56 68 1010.0
20260509185419 16 171 6.4 12.9 0.00 0.56 0.56 70 1010.1
20260509184930 16 319 3.2 11.3 0.00 0.56 0.56 72 1010.0
20260509184442 16 342 1.6 16.1 0.00 0.56 0.56 71 1010.1
20260509183932 16 323 4.8 16.1 0.00 0.56 0.56 69 1010.1
20260509183423 17 284 3.2 16.1 0.00 0.56 0.56 74 1010.1
20260509182933 16 208 8.0 16.1 0.00 0.56 0.56 68 1010.1
20260509182424 16 128 11.3 16.1 0.00 0.56 0.56 67 1010.1
20260509181949 16 198 8.0 24.1 0.00 0.56 0.56 67 1010.1
20260509181440 16 309 9.7 24.1 0.00 0.56 0.56 71 1010.2
20260509180931 16 171 6.4 17.7 0.00 0.56 0.56 71 1010.2
20260509180442 16 134 4.8 12.9 0.00 0.56 0.56 72 1010.2
20260509175917 15 192 6.4 12.9 0.00 0.56 0.56 73 1010.3
20260509175427 15 146 6.4 12.9 0.00 0.56 0.56 76 1010.3
20260509174919 15 213 4.8 16.1 0.00 0.56 0.56 77 1010.3
20260509174449 15 153 6.4 16.1 0.00 0.56 0.56 76 1010.3
20260509173935 15 143 11.3 24.1 0.00 0.56 0.56 75 1010.4
20260509173427 14 131 9.7 24.1 0.00 0.56 0.56 78 1010.3
20260509172918 14 159 8.0 16.1 0.00 0.56 0.56 77 1010.3
20260509172447 14 238 8.0 16.1 0.00 0.56 0.56 79 1010.2
20260509171956 14 139 3.2 16.1 0.00 0.56 0.56 79 1010.1
20260509171427 15 190 9.7 25.7 0.00 0.56 0.56 80 1010.1
20260509170918 14 186 12.9 25.7 0.00 0.56 0.56 84 1010.0
20260509170424 14 126 6.4 22.5 0.00 0.56 0.56 81 1010.0
20260509165924 13 231 6.4 16.1 0.00 0.56 0.56 84 1010.1
20260509165432 13 148 4.8 12.9 0.03 0.56 0.56 86 1010.0
20260509164923 13 161 4.8 14.5 0.03 0.56 0.56 89 1009.9
20260509164435 12 142 8.0 14.5 0.03 0.56 0.56 90 1009.9
20260509163926 12 153 8.0 12.9 0.03 0.56 0.56 89 1009.9
20260509163419 12 171 6.4 12.9 0.03 0.56 0.56 89 1010.0
20260509162929 12 182 6.4 12.9 0.03 0.56 0.56 90 1010.1
20260509162456 12 161 4.8 11.3 0.03 0.56 0.56 90 1010.1
20260509161926 12 161 4.8 11.3 0.03 0.56 0.56 91 1010.0
20260509161419 12 195 4.8 8.0 0.03 0.56 0.56 90 1010.0
20260509160930 12 172 1.6 11.3 0.03 0.56 0.56 90 1009.9
20260509160419 12 175 4.8 12.9 0.03 0.56 0.56 90 1009.9
20260509155923 12 152 4.8 12.9 0.03 0.56 0.56 89 1010.0
20260509155446 12 165 6.4 12.9 0.00 0.53 0.53 89 1010.1
20260509154917 12 160 3.2 11.3 0.00 0.53 0.53 89 1010.0
20260509154425 12 163 6.4 16.1 0.00 0.53 0.53 89 1010.1
20260509153955 12 153 9.7 16.1 0.00 0.53 0.53 88 1010.1
20260509153427 12 360 6.4 22.5 0.00 0.53 0.53 89 1010.0
20260509152918 12 360 12.9 22.5 0.00 0.53 0.53 89 1010.0
20260509152429 12 157 8.0 19.3 0.00 0.53 0.53 89 1010.0
20260509151938 12 166 8.0 16.1 0.00 0.53 0.53 90 1009.9
20260509151423 12 151 8.0 17.7 0.00 0.53 0.53 91 1009.9
20260509150932 12 122 4.8 17.7 0.03 0.53 0.53 92 1010.0
20260509150442 12 151 9.7 17.7 0.03 0.53 0.53 94 1010.1
20260509145936 11 168 8.0 14.5 0.03 0.53 0.53 94 1010.2
20260509145425 11 123 4.8 9.7 0.03 0.53 0.53 94 1010.3
20260509144917 11 161 4.8 9.7 0.03 0.53 0.53 94 1010.4
20260509144426 11 182 3.2 11.3 0.03 0.53 0.53 94 1010.5
20260509143917 11 180 4.8 11.3 0.03 0.53 0.53 94 1010.5
20260509143424 11 189 4.8 11.3 0.03 0.53 0.53 94 1010.5
20260509142935 11 162 6.4 11.3 0.05 0.53 0.53 94 1010.4
20260509142426 11 183 4.8 8.0 0.05 0.53 0.53 94 1010.4
20260509141937 11 170 4.8 16.1 0.05 0.53 0.53 94 1010.5
20260509141426 11 147 4.8 16.1 0.08 0.53 0.53 94 1010.5
20260509140938 11 132 3.2 14.5 0.05 0.51 0.51 94 1010.5
20260509140428 10 138 3.2 14.5 0.05 0.51 0.51 94 1010.6
20260509135931 10 156 3.2 22.5 0.05 0.51 0.51 94 1010.6
20260509135439 10 144 6.4 22.5 0.08 0.51 0.51 94 1010.6
20260509134929 10 180 4.8 14.5 0.08 0.51 0.51 94 1010.6
20260509134420 10 125 8.0 14.5 0.10 0.51 0.51 94 1010.7
20260509133932 10 215 3.2 9.7 0.10 0.51 0.51 94 1010.7
20260509133422 10 167 4.8 9.7 0.13 0.51 0.51 95 1010.8
20260509132931 10 202 1.6 8.0 0.13 0.48 0.48 94 1010.7
20260509132422 10 165 3.2 11.3 0.13 0.48 0.48 94 1010.7
20260509131929 10 167 4.8 11.3 0.13 0.48 0.48 95 1010.7
20260509131422 10 152 3.2 12.9 0.13 0.46 0.46 95 1010.7
20260509130932 10 155 6.4 12.9 0.15 0.46 0.46 95 1010.7
20260509130423 10 180 4.8 11.3 0.15 0.46 0.46 95 1010.8
20260509125929 10 153 4.8 9.7 0.18 0.46 0.46 95 1010.8
20260509125421 10 127 3.2 12.9 0.18 0.43 0.43 95 1010.8
20260509124934 10 142 6.4 12.9 0.18 0.43 0.43 95 1010.8
20260509124423 10 200 4.8 9.7 0.18 0.41 0.41 95 1010.9
20260509123936 10 140 3.2 6.4 0.18 0.41 0.41 95 1010.8
20260509123424 10 150 3.2 9.7 0.18 0.38 0.38 95 1010.9
20260509122933 10 142 4.8 9.7 0.15 0.36 0.36 95 1010.9
20260509122425 10 104 6.4 11.3 0.15 0.36 0.36 95 1010.9
20260509121932 10 192 3.2 16.1 0.18 0.36 0.36 95 1010.9
20260509121444 10 198 6.4 16.1 0.18 0.33 0.33 95 1010.9
20260509120934 10 148 3.2 11.3 0.15 0.30 0.30 95 1010.9
20260509120447 10 170 3.2 11.3 0.15 0.30 0.30 95 1010.9
20260509115929 10 215 4.8 11.3 0.13 0.28 0.28 94 1010.9
20260509115420 10 192 4.8 11.3 0.10 0.25 0.25 94 1010.9
20260509114931 10 172 4.8 12.9 0.10 0.25 0.25 94 1010.9
20260509114441 10 163 3.2 9.7 0.08 0.23 0.23 94 1010.8
20260509113929 10 240 6.4 16.1 0.05 0.20 0.20 94 1010.8
20260509113421 10 150 6.4 16.1 0.05 0.20 0.20 94 1010.7
20260509112931 10 142 4.8 11.3 0.05 0.20 0.20 94 1010.7
20260509112422 10 119 6.4 11.3 0.05 0.20 0.20 94 1010.8
20260509111928 10 163 3.2 9.7 0.03 0.18 0.18 94 1010.8
20260509111420 10 153 4.8 9.7 0.00 0.15 0.15 94 1010.7
20260509110931 10 152 3.2 9.7 0.00 0.15 0.15 94 1010.7
20260509110423 10 125 4.8 9.7 0.00 0.15 0.15 94 1010.7
20260509105929 9 128 3.2 6.4 0.00 0.15 0.15 93 1010.6
20260509105420 10 128 3.2 8.0 0.00 0.15 0.15 93 1010.6
20260509104932 10 136 3.2 11.3 0.03 0.15 0.15 93 1010.5
20260509104444 10 134 4.8 12.9 0.05 0.15 0.15 93 1010.5
20260509103929 10 126 4.8 12.9 0.05 0.15 0.15 93 1010.5
20260509103420 10 138 3.2 8.0 0.05 0.15 0.15 93 1010.5
20260509102931 10 138 4.8 8.0 0.05 0.15 0.15 93 1010.5
20260509102422 10 159 4.8 9.7 0.05 0.15 0.15 93 1010.5
20260509101934 10 142 4.8 8.0 0.08 0.15 0.15 93 1010.5
20260509101425 10 140 4.8 6.4 0.08 0.15 0.15 93 1010.5
20260509100936 10 161 4.8 11.3 0.08 0.15 0.15 92 1010.6
20260509100427 10 132 4.8 11.3 0.10 0.15 0.15 92 1010.6
20260509095926 10 149 3.2 8.0 0.10 0.15 0.15 92 1010.6
20260509095418 10 153 3.2 8.0 0.10 0.15 0.15 92 1010.7
20260509094928 10 149 3.2 8.0 0.08 0.13 0.13 92 1010.7
20260509094418 10 142 4.8 11.3 0.05 0.10 0.10 91 1010.8
20260509093932 10 135 4.8 11.3 0.05 0.10 0.10 91 1010.8
20260509093421 10 149 4.8 11.3 0.08 0.10 0.10 91 1010.9
20260509092934 10 105 4.8 11.3 0.08 0.10 0.10 91 1010.9
20260509092424 10 182 4.8 12.9 0.05 0.08 0.08 91 1010.9
20260509091935 10 183 6.4 16.1 0.08 0.08 0.08 91 1010.9
20260509091423 10 202 6.4 16.1 0.08 0.08 0.08 91 1011.0
20260509090934 10 153 4.8 16.1 0.08 0.08 0.08 91 1011.0
20260509090426 10 138 6.4 16.1 0.05 0.05 0.05 91 1011.1
20260509085933 10 151 8.0 11.3 0.05 0.05 0.05 91 1011.2
20260509085425 10 178 4.8 12.9 0.05 0.05 0.05 91 1011.2
20260509084936 10 259 4.8 12.9 0.05 0.05 0.05 90 1011.2
20260509084426 10 155 4.8 12.9 0.05 0.05 0.05 90 1011.3
20260509083939 10 153 6.4 9.7 0.05 0.05 0.05 90 1011.4
20260509083423 10 210 6.4 14.5 0.03 0.03 0.03 89 1011.5
20260509082934 10 268 4.8 14.5 0.03 0.03 0.03 89 1011.4
20260509082424 10 140 6.4 16.1 0.00 0.00 0.00 89 1011.4
20260509081935 10 148 6.4 16.1 0.00 0.00 0.00 89 1011.4
20260509081425 10 190 6.4 11.3 0.00 0.00 0.00 89 1011.4
20260509080916 10 250 4.8 9.7 0.00 0.00 0.00 90 1011.2
20260509080426 9 189 4.8 14.5 0.00 0.00 0.00 90 1011.3
20260509075950 9 154 3.2 16.1 0.00 0.00 0.00 92 1011.1
20260509075436 9 169 4.8 16.1 0.00 0.00 0.00 92 1011.0
20260509074926 9 294 4.8 16.1 0.00 0.00 0.00 92 1010.8
20260509074438 9 212 4.8 16.1 0.00 0.00 0.00 92 1010.7
20260509073926 9 342 1.6 4.8 0.00 0.00 0.00 92 1010.6
20260509073417 9 315 1.6 3.2 0.00 0.00 0.00 92 1010.5
20260509072931 9 315 1.6 3.2 0.00 0.00 0.00 92 1010.3
20260509072421 9 327 0.0 3.2 0.00 0.00 0.00 92 1010.1
20260509071932 9 327 0.0 1.6 0.00 0.00 0.00 92 1010.1
20260509071419 9 327 0.0 3.2 0.00 0.00 0.00 92 1010.0
20260509070930 9 327 0.0 3.2 0.00 0.00 0.00 92 1010.0
20260509070424 9 327 0.0 1.6 0.00 0.00 0.00 91 1009.9
20260509065927 9 327 0.0 1.6 0.00 0.00 0.00 91 1009.8
20260509065417 9 327 0.0 1.6 0.00 0.00 0.00 91 1009.8
20260509064929 9 327 0.0 3.2 0.00 0.00 0.00 91 1009.8
20260509064420 9 327 1.6 3.2 0.00 0.00 0.00 91 1009.8
20260509063931 9 327 0.0 1.6 0.00 0.00 0.00 91 1009.9
20260509063421 9 327 0.0 3.2 0.00 0.00 0.00 91 1009.9
20260509062929 9 327 1.6 3.2 0.00 0.00 0.00 91 1009.9
20260509062419 9 327 0.0 1.6 0.00 0.00 0.00 91 1010.0
20260509061932 9 327 1.6 1.6 0.00 0.00 0.00 91 1010.1
20260509061421 9 327 0.0 1.6 0.00 0.00 0.00 90 1010.2
20260509060931 9 327 0.0 1.6 0.00 0.00 0.00 90 1010.3
20260509060422 9 327 0.0 3.2 0.00 0.00 0.00 90 1010.4
20260509055929 9 327 0.0 3.2 0.00 0.00 0.00 91 1010.4
20260509055419 9 327 1.6 3.2 0.00 0.00 0.00 91 1010.5
20260509054947 9 327 0.0 3.2 0.00 0.00 0.00 91 1010.6
20260509054418 9 327 1.6 3.2 0.00 0.00 0.00 91 1010.7
20260509053927 9 327 1.6 3.2 0.00 0.00 0.00 91 1010.8
20260509053419 10 327 1.6 3.2 0.00 0.00 0.00 91 1010.8
20260509052930 10 327 0.0 1.6 0.00 0.00 0.00 90 1010.9
20260509052425 10 327 0.0 0.0 0.00 0.00 0.00 90 1010.8
20260509051917 10 327 0.0 1.6 0.00 0.00 0.00 90 1010.9
20260509051428 10 327 0.0 1.6 0.00 0.00 0.00 90 1011.0
20260509050933 10 327 0.0 1.6 0.00 0.00 0.00 90 1011.0
20260509050423 10 327 0.0 1.6 0.00 0.00 0.00 90 1011.1
20260509045949 10 327 0.0 1.6 0.00 0.00 0.00 90 1011.1
20260509045421 10 327 0.0 1.6 0.00 0.00 0.00 89 1011.0
20260509044933 10 327 0.0 3.2 0.00 0.00 0.00 89 1011.1
20260509044425 10 327 0.0 3.2 0.00 0.00 0.00 89 1011.0
20260509043917 10 327 1.6 3.2 0.00 0.00 0.00 89 1011.0
20260509043429 10 327 1.6 3.2 0.00 0.00 0.00 89 1011.1
20260509042938 10 327 0.0 3.2 0.00 0.00 0.00 89 1011.0
20260509042427 10 327 0.0 3.2 0.00 0.00 0.00 89 1011.0
20260509041920 10 327 0.0 6.4 0.00 0.00 0.00 89 1011.0
20260509041432 10 327 3.2 6.4 0.00 0.00 0.00 89 1011.1
20260509040943 10 309 0.0 1.6 0.00 0.00 0.00 89 1011.1
20260509040432 10 309 0.0 1.6 0.00 0.00 0.00 89 1011.2
20260509035932 10 309 0.0 1.6 0.00 0.00 0.00 89 1011.2
20260509035432 10 309 0.0 0.0 0.00 0.00 0.00 88 1011.2
20260509034923 10 309 0.0 0.0 0.00 0.00 0.00 88 1011.3
20260509034436 10 309 0.0 1.6 0.00 0.00 0.00 88 1011.4